This is the latest recevied weather packets stored in our database for station/object VA3WWD-2. If no packets are shown the sender has not sent any weather packets the latest 10 day(s).
| Time | Temp. | Humidity | Pressure | Rain* | Wind** | Luminosity | Snow |
|---|---|---|---|---|---|---|---|
| 1778098267 | 7.78° C | 38% | - | 0 mm | 0 m/s | - | - |
| 1778097668 | 8.33° C | 36% | - | 0 mm | 0 m/s | - | - |
| 1778097370 | 6.67° C | 38% | - | 0 mm | 0 m/s | - | - |
| 1778097069 | 6.67° C | 36% | - | 0 mm | 0 m/s | - | - |
| 1778096771 | 6.67° C | 37% | - | 0 mm | 0 m/s | - | - |
| 1778096473 | 7.78° C | 38% | - | 0 mm | 0 m/s | - | - |
| 1778096172 | 7.22° C | 36% | - | 0 mm | 0 m/s | - | - |
| 1778095874 | 7.22° C | 36% | - | 0 mm | 0 m/s | - | - |
| 1778095576 | 7.78° C | 36% | - | 0 mm | 0 m/s | - | - |
| 1778095275 | 8.33° C | 35% | - | 0 mm | 0 m/s | - | - |
| 1778094977 | 7.78° C | 37% | - | 0 mm | 0 m/s | - | - |
| 1778094679 | 8.89° C | 38% | - | 0 mm | 0 m/s | - | - |
| 1778094378 | 7.78° C | 37% | - | 0 mm | 0 m/s | - | - |
| 1778094080 | 8.33° C | 39% | - | 0 mm | 0 m/s | - | - |
| 1778093782 | 7.78° C | 37% | - | 0 mm | 0 m/s | - | - |
| 1778093481 | 7.78° C | 39% | - | 0 mm | 0 m/s | - | - |
| 1778093183 | 6.67° C | 38% | - | 0 mm | 0 m/s | - | - |
| 1778092584 | 8.33° C | 37% | - | 0 mm | 0 m/s | - | - |
| 1778091988 | 7.78° C | 39% | - | 0 mm | 0 m/s | - | - |
| 1778091687 | 8.33° C | 39% | - | 0 mm | 0 m/s | - | - |
| 1778091389 | 7.78° C | 38% | - | 0 mm | 0 m/s | - | - |
| 1778091091 | 7.22° C | 39% | - | 0 mm | 0 m/s | - | - |
| 1778090194 | 6.67° C | 40% | - | 0 mm | 0 m/s | - | - |
| 1778089893 | 7.22° C | 38% | - | 0 mm | 0 m/s | - | - |
| 1778089297 | 6.67° C | 42% | - | 0 mm | 0 m/s | - | - |
* Rain latest hour (hover to see other rain measurements)
** Current wind speed in m/s (hover to see current wind gust speed)